Dewpoint
56 56 57 58 59 58 58 57 57 56 56 56 56 55 54 52 52 53 52 55 54 53 52 51 51 52 50 50 50 52 52 52 52 51 50 50 50 50 48 46 44 45 46 48 46 47 43 42 44 46 48 45 44 45 43 44 46 46 45 42 41 43 40 40 36 35 36 37 34 27 31 34 25 31 32 36 38 34 37 37 37 36 36 39 40
55 56 56 57 58 58 58 57 56 57 57 56 55 54 54 53 53 52 52 53 54 52 51 53 53 51 50 49 51 50 50 51 51 51 49 51 51 52 51 46 45 45 48 43 46 47 48 42 41 43 44 41 45 35 39 40 38 37 39 40 37 39 41 33 33 35 34 36 32 28 28 35 25 29 36 39 39 36 28 31 30 30 31 35 36
55 55 56 57 58 58 58 57 55 58 57 56 55 54 54 54 52 53 52 52 52 53 52 52 51 50 50 50 49 50 49 49 52 51 51 51 50 52 52 49 48 48 47 44 40 44 46 45 43 45 46 46 46 43 44 39 35 34 39 38 38 35 29 30 35 35 35 31 34 28 32 33 34 26 29 35 36 31 29 31 30 29 29 33 34
54 54 54 55 58 57 57 57 57 57 57 57 56 56 55 55 53 52 51 51 50 53 53 51 50 50 50 49 49 49 50 51 51 49 49 49 49 50 51 51 50 49 46 44 40 44 44 45 45 47 45 45 44 44 43 43 41 38 41 41 39 33 37 39 38 38 35 32 31 23 28 34 30 29 29 30 33 30 31 31 31 30 30 28 30
53 52 52 53 54 56 56 56 57 57 57 57 57 57 56 55 54 51 52 52 51 52 52 51 50 49 51 49 48 49 50 51 51 51 51 51 50 50 49 49 52 50 50 48 48 46 46 45 44 45 46 44 47 44 43 45 37 40 39 36 33 35 37 35 36 37 38 35 35 33 34 29 27 32 29 28 30 31 31 30 30 31 34 33 29
53 53 53 52 52 54 55 56 56 57 56 57 57 57 56 55 55 54 51 52 54 53 52 51 50 50 50 50 51 51 52 53 52 52 52 53 53 52 51 50 50 49 50 50 48 49 49 45 47 47 46 46 46 46 46 45 41 42 39 33 30 36 39 39 39 39 35 33 36 35 37 32 32 33 31 33 34 32 32 33 34 35 37 37 35
54 53 53 52 51 52 53 54 55 56 56 56 58 56 56 56 55 54 53 53 53 53 52 52 54 52 52 54 53 54 54 54 54 55 54 53 54 53 53 52 51 51 50 49 48 49 49 48 49 49 48 47 47 48 48 48 46 44 43 42 31 36 38 36 35 37 37 36 35 37 35 36 37 34 28 32 33 32 35 35 36 32 37 38 37
54 54 53 53 52 53 54 54 54 55 55 56 56 56 56 56 54 55 54 54 54 53 52 53 56 55 56 55 55 56 55 54 54 54 53 54 54 54 54 54 52 51 53 51 50 50 49 49 49 49 48 48 48 49 49 47 46 45 44 41 39 39 38 39 39 37 37 38 36 35 35 36 37 36 31 35 35 34 33 35 35 36 36 37 37
55 54 54 54 53 53 54 55 55 55 54 55 56 56 57 56 56 55 55 55 56 54 55 55 55 54 54 56 56 55 55 55 54 54 54 54 54 54 54 52 52 51 52 52 52 51 50 50 49 49 50 50 46 47 47 46 46 44 45 42 40 39 39 38 40 37 37 38 37 38 36 37 36 37 35 35 35 34 38 38 37 36 34 35 34
54 54 54 54 54 54 54 56 55 56 56 56 56 57 57 57 57 56 55 55 55 56 55 55 54 54 54 55 57 56 55 55 53 49 49 54 55 52 54 54 53 52 53 53 53 53 52 52 52 49 47 46 44 42 41 41 43 44 44 43 40 40 40 40 38 38 39 38 37 37 37 38 36 38 38 39 39 39 38 37 35 33 34 34 35
53 53 54 54 54 55 55 55 56 55 56 56 57 56 55 56 56 56 56 56 57 57 57 56 57 56 54 54 54 55 56 54 48 46 44 45 50 54 54 54 55 54 54 54 54 54 54 52 53 52 49 47 46 42 40 40 39 39 39 39 40 40 40 40 40 40 37 37 37 36 35 37 39 38 38 36 40 37 36 36 35 35 33 32 30
47 49 51 52 53 54 54 55 54 54 55 55 55 54 55 55 55 56 56 56 55 55 56 55 54 54 54 53 54 55 56 49 45 44 44 43 44 51 54 54 55 55 54 54 53 53 53 54 54 54 53 51 50 48 43 40 38 37 36 36 36 36 37 46 42 39 40 37 37 37 36 36 37 38 37 38 38 38 38 37 36 34 34 32 31
39 41 43 46 49 53 54 53 53 53 53 54 54 54 54 54 55 55 56 55 56 55 55 55 55 55 55 53 52 54 54 44 44 43 42 39 39 43 49 51 52 52 53 53 53 53 53 53 53 54 50 48 46 47 48 46 39 37 36 37 37 36 34 34 36 46 40 39 37 39 36 37 37 38 40 39 38 37 36 33 35 34 34 33 31
39 39 39 41 44 49 52 53 53 53 54 54 54 54 54 54 56 56 56 56 55 55 55 56 55 55 54 53 53 54 54 44 41 40 39 38 39 41 49 52 53 52 51 51 53 52 52 51 50 51 51 49 49 49 48 47 42 39 39 39 39 41 38 36 35 36 39 42 40 38 41 39 37 40 39 37 37 34 34 33 35 34 34 33 35
39 40 40 39 40 44 49 52 52 53 53 53 54 53 54 56 55 55 55 54 54 54 55 55 55 55 55 54 53 54 54 41 39 38 39 40 40 43 53 52 50 50 49 50 50 50 49 50 50 49 48 46 46 45 46 45 42 41 41 41 41 41 42 42 41 40 38 39 39 40 40 40 39 38 38 37 37 36 36 35 36 35 35 37 36
37 40 39 40 39 39 43 47 52 52 52 52 53 53 54 54 54 54 55 55 55 55 55 55 55 55 55 54 54 53 52 38 38 39 40 40 39 50 50 50 49 48 48 48 47 47 47 47 47 46 45 44 39 36 38 41 40 39 40 40 39 39 37 37 37 38 42 41 40 39 38 42 38 41 40 37 36 37 36 35 36 37 35 31 29
36 38 38 38 39 39 40 42 45 48 50 51 51 53 53 53 54 55 55 55 54 54 54 54 54 54 54 54 54 53 49 40 38 39 39 39 41 48 48 46 46 46 45 46 46 47 47 46 44 43 43 42 38 35 35 37 38 38 39 40 40 38 37 36 35 35 35 34 34 34 34 34 34 34 34 35 37 38 34 32 32 33 31 28 30
35 35 37 36 37 38 40 41 42 44 46 48 50 52 54 54 54 53 54 53 54 53 54 54 54 54 53 53 53 52 48 42 38 38 38 38 44 48 45 45 45 44 43 43 43 42 41 43 44 44 44 43 36 36 37 39 40 40 40 40 39 38 37 37 36 37 35 35 35 34 34 34 34 34 34 35 35 37 34 30 33 31 31 30 28
33 34 37 37 37 37 39 40 42 43 42 45 48 49 51 51 52 51 53 54 53 52 50 51 51 51 51 51 48 49 47 42 37 37 38 38 45 48 44 43 43 43 41 39 39 38 37 37 38 40 41 39 34 35 36 41 42 41 41 40 38 37 36 36 36 35 36 37 37 38 37 37 40 38 38 35 35 36 37 35 33 32 29 29 30
34 35 36 38 38 38 39 39 43 44 44 43 43 45 47 48 48 49 49 50 50 50 49 49 48 47 48 47 47 48 47 46 42 37 38 38 40 45 44 42 42 42 40 37 37 37 36 35 35 34 33 33 33 33 34 36 41 41 40 38 37 36 35 36 36 36 35 34 35 35 35 35 35 36 35 36 37 36 35 35 34 33 31 30 30
36 36 37 36 37 36 37 39 40 44 44 47 45 44 44 46 48 48 48 48 48 48 47 45 43 43 44 45 45 47 48 46 43 37 37 37 38 41 44 44 42 40 38 36 36 36 34 33 34 34 33 33 33 33 34 34 35 39 38 37 38 38 35 35 37 34 35 34 33 33 33 33 34 34 33 34 32 32 33 34 34 33 32 30 28
37 36 36 36 37 38 38 40 42 46 45 45 48 45 45 45 48 49 47 48 47 45 45 43 41 41 41 43 44 44 43 43 44 38 36 36 36 38 43 44 42 40 38 36 35 36 35 34 33 34 33 33 33 33 33 34 34 35 37 33 33 34 36 34 34 33 33 33 31 31 32 31 30 32 32 31 30 31 32 33 33 34 33 33 31
36 36 36 37 37 38 39 41 42 42 44 43 44 48 46 44 46 48 49 48 47 46 44 42 41 41 40 40 41 42 43 40 39 41 36 36 35 36 39 40 36 42 39 37 37 35 35 35 34 35 33 33 33 33 34 34 34 35 33 33 33 33 34 33 32 34 33 32 33 32 32 32 31 29 31 30 31 33 32 33 33 33 33 33 33
35 36 36 36 37 37 36 38 40 42 41 43 44 45 45 45 45 46 48 47 45 44 42 43 41 41 40 38 38 38 40 39 36 37 38 35 35 36 35 35 37 41 40 38 36 35 36 37 35 34 34 34 33 33 33 33 33 33 33 33 33 33 33 33 32 34 32 31 31 30 31 30 30 30 30 31 30 33 33 34 32 31 31 32 31
34 35 35 35 36 36 37 38 39 39 40 40 39 40 46 45 43 44 46 46 45 44 42 41 42 41 39 39 36 35 37 38 38 36 36 35 35 35 34 34 34 34 38 38 37 37 35 34 33 33 33 33 33 33 33 32 32 32 32 32 34 33 34 32 32 32 30 30 29 31 30 30 30 31 33 34 33 32 32 32 32 32 32 33 33
33 33 33 34 35 34 35 36 38 39 41 40 40 39 41 44 44 44 45 45 45 44 41 40 40 39 39 38 35 34 37 38 38 38 37 36 35 34 33 34 35 35 36 36 34 33 33 33 33 32 33 33 34 34 33 34 32 33 33 34 34 31 32 30 31 31 30 29 29 29 29 30 30 32 31 31 31 29 30 31 31 31 32 31 30
32 33 33 33 34 35 36 35 36 38 39 39 39 40 39 40 43 43 42 43 44 45 42 41 40 39 39 35 33 32 33 35 35 37 37 36 36 35 35 35 34 34 34 34 33 33 33 34 33 33 32 32 33 33 33 33 34 33 31 31 32 31 32 31 31 31 29 29 29 29 29 30 29 30 30 30 30 30 31 31 30 30 31 30 30
32 32 32 33 33 33 35 34 35 35 37 40 40 39 40 42 41 42 44 44 42 42 44 43 41 40 39 36 34 32 33 33 35 35 36 35 35 35 36 36 36 35 34 35 35 33 33 32 33 33 34 33 33 33 33 33 31 30 31 30 29 29 30 32 32 31 31 30 30 30 28 30 30 29 30 29 30 30 31 30 30 30 30 30 30
31 32 33 33 33 35 36 36 36 36 37 38 41 39 42 41 40 42 46 44 43 44 45 47 45 45 41 36 36 35 32 32 36 33 36 34 34 35 36 35 35 35 35 34 34 34 33 32 31 31 30 31 29 32 30 31 30 30 32 31 30 30 29 29 29 29 30 30 29 30 28 29 29 30 30 30 30 30 31 30 31 31 30 30 29
32 32 32 33 34 35 36 36 36 37 38 37 38 40 33 34 37 42 43 39 36 36 36 43 47 45 43 39 38 36 35 36 33 33 33 33 33 33 33 33 33 34 32 32 32 30 31 30 30 28 31 30 29 28 28 28 29 28 28 28 29 28 28 28 28 28 28 29 29 29 30 30 30 30 30 30 30 30 31 31 30 31 30 30 29
31 32 32 33 33 34 36 37 37 38 37 37 38 38 38 40 33 33 34 37 37 36 36 36 36 36 38 36 35 32 32 32 32 33 33 33 32 32 32 32 32 32 31 30 29 28 28 27 27 28 29 29 29 28 27 27 26 25 27 27 28 28 28 30 28 27 27 27 28 29 29 30 30 30 30 30 30 30 30 31 31 31 30 30 30
31 31 32 32 33 33 34 35 37 38 37 38 38 37 38 38 40 35 34 35 35 36 36 36 36 36 36 37 36 36 32 32 32 33 33 32 32 32 32 32 31 31 31 30 28 27 27 27 27 29 29 28 28 27 28 28 27 27 29 26 25 26 28 26 28 28 29 29 28 28 29 30 30 30 30 30 30 30 30 30 30 30 30 30 30
32 31 31 31 32 32 32 33 35 37 38 37 38 38 37 37 38 37 36 33 34 34 34 34 35 35 35 35 34 33 32 32 32 33 33 32 32 32 32 32 31 31 31 28 27 27 27 29 29 30 29 28 29 28 28 29 29 28 29 28 27 27 29 29 31 30 29 30 29 29 29 30 30 30 30 30 30 29 30 30 30 30 31 31 30
33 32 32 32 32 32 32 33 34 35 36 37 37 37 37 38 37 36 35 36 36 35 33 33 34 34 34 34 33 33 32 32 32 33 32 32 32 32 31 31 31 31 30 29 28 27 29 30 29 29 29 29 28 30 28 28 28 29 29 29 29 28 27 28 28 28 28 29 29 29 30 30 30 30 30 30 30 31 30 29 31 30 30 30 30
34 33 32 32 32 32 32 33 33 35 36 37 37 38 40 40 39 36 35 37 38 38 38 36 33 33 33 33 33 32 32 32 33 33 33 32 32 31 31 30 28 30 30 31 30 29 29 30 29 31 29 28 28 27 28 31 29 29 30 30 28 25 25 26 27 28 30 30 30 30 30 30 31 30 30 30 30 30 30 30 30 31 31 31 30
35 34 34 33 33 33 33 33 34 35 35 37 37 38 38 38 37 38 39 39 37 36 34 35 35 32 33 33 32 32 32 33 33 32 32 32 31 31 29 28 28 28 29 29 29 31 30 30 30 29 29 28 29 29 29 30 30 30 29 28 26 25 26 27 27 28 30 30 29 29 30 30 30 30 30 30 31 30 30 30 30 30 31 31 30
35 35 34 34 34 33 34 34 34 34 33 34 36 36 36 37 37 37 36 38 36 37 37 33 34 33 34 33 33 32 32 32 32 32 32 31 31 30 30 29 29 29 29 29 30 29 29 30 29 29 29 28 29 30 30 31 30 30 30 27 26 25 25 26 27 29 30 29 28 30 30 29 30 30 30 30 30 30 30 30 30 30 30 30 31
36 36 35 34 34 34 34 34 34 33 34 35 36 36 37 37 36 35 35 34 32 31 33 33 32 33 33 32 33 33 32 32 32 32 31 31 30 29 30 30 30 30 29 29 30 30 29 29 29 28 28 31 31 31 31 30 31 30 30 28 26 26 27 27 28 31 30 29 29 29 30 30 30 30 30 30 30 30 30 31 30 30 31 31 30
38 35 34 33 33 35 34 34 34 34 34 34 34 34 35 35 35 35 34 33 33 32 31 31 30 32 32 34 33 32 32 30 30 29 29 29 29 30 30 30 29 29 30 30 30 29 30 29 29 29 30 31 31 30 30 30 31 28 28 25 23 23 25 27 29 29 29 29 29 30 30 30 30 30 30 30 30 30 30 31 31 31 31 31 31
38 38 35 33 34 34 35 34 35 34 34 33 33 35 34 34 34 34 34 34 33 32 31 31 32 33 32 33 33 32 30 29 29 29 29 29 29 31 30 30 30 30 30 30 29 30 30 28 28 29 31 31 30 30 31 31 30 26 25 23 22 23 25 27 29 29 29 30 30 30 30 30 30 30 30 30 30 30 31 31 31 31 31 31 31
38 38 36 34 35 35 35 35 35 34 35 34 34 34 34 34 34 34 34 34 32 31 31 33 34 30 34 33 31 30 29 30 30 30 29 30 30 31 30 30 29 30 30 30 30 29 29 28 29 29 30 29 30 30 31 29 27 25 23 23 23 24 26 28 28 29 30 30 30 30 30 30 30 30 30 30 31 31 31 31 31 31 31 31 31
37 38 37 36 35 35 35 34 35 34 34 34 34 33 34 34 33 33 32 32 31 30 29 31 33 34 31 31 31 30 30 30 29 30 30 30 30 29 30 30 30 30 30 31 31 30 29 29 28 28 29 29 29 29 28 26 25 24 23 22 23 25 26 27 28 29 30 30 30 30 30 30 30 30 31 31 30 30 30 31 31 31 31 31 32
36 37 37 36 36 36 35 35 36 36 35 35 34 33 33 33 34 33 32 32 31 30 29 28 31 31 31 31 31 30 30 30 30 30 30 30 29 29 30 30 30 31 31 31 31 30 29 28 28 28 29 29 30 29 27 25 25 24 23 24 25 26 27 27 28 29 30 30 30 30 30 30 30 30 30 30 30 30 30 31 31 31 31 32 32
36 36 36 35 35 35 35 36 36 35 35 34 34 34 34 33 34 33 32 31 30 29 28 26 27 29 30 31 31 30 30 29 29 29 30 29 30 29 30 30 31 31 31 31 30 31 29 29 29 29 31 30 32 31 28 26 26 25 24 25 26 26 27 27 27 28 28 28 28 29 29 30 30 30 30 30 30 30 31 31 31 31 31 32 32
36 36 36 36 36 36 36 36 34 34 32 33 34 33 32 32 32 31 31 30 29 29 29 28 29 30 30 30 30 29 29 29 30 30 30 30 30 30 30 31 31 31 30 30 30 31 30 29 30 30 30 30 31 30 27 28 28 26 26 26 26 26 26 26 27 27 27 27 27 28 29 29 30 30 30 31 31 31 30 31 31 31 32 32 32
36 36 35 35 35 35 34 34 33 34 34 34 33 32 31 30 29 29 30 30 29 30 29 30 31 31 31 31 31 30 29 29 30 30 30 30 30 30 30 30 30 30 30 30 30 30 29 29 29 30 30 30 29 28 27 28 28 28 28 27 26 26 26 26 26 26 26 27 27 27 28 29 30 30 31 31 30 31 31 31 32 32 32 32 32
35 35 35 35 35 34 34 34 34 34 33 33 33 32 31 30 30 31 31 32 31 31 32 31 31 31 31 31 30 30 30 30 30 30 30 30 30 30 30 30 30 30 30 30 30 29 29 29 30 30 30 30 28 27 27 28 27 26 26 26 27 27 26 25 25 26 26 27 27 27 28 29 30 30 30 31 31 31 31 31 31 32 32 32 32
35 35 35 34 34 34 33 33 33 33 33 33 32 32 32 31 31 32 32 33 33 34 35 33 32 32 32 31 30 30 30 30 30 30 30 30 30 30 31 30 30 29 29 29 29 28 29 30 30 30 29 28 27 26 27 27 27 27 26 26 26 25 25 25 25 26 26 26 27 28 29 29 30 31 31 31 31 31 31 31 31 31 32 32 32
34 35 35 34 34 34 34 34 33 34 33 33 32 30 31 30 31 32 32 33 34 33 32 31 31 31 31 30 30 30 30 30 30 30 30 30 30 31 30 30 29 29 29 28 28 29 29 29 28 28 28 27 27 26 26 26 26 26 26 26 25 25 25 24 25 25 25 26 27 28 29 30 31 31 31 31 31 31 31 31 31 31 31 32 31
31 32 33 34 34 34 34 34 34 34 33 33 32 31 31 31 31 31 31 31 31 30 30 30 29 29 29 30 30 30 30 30 30 30 30 30 29 29 29 30 29 28 28 28 28 28 28 28 28 27 27 28 27 27 26 25 26 26 26 25 24 24 24 24 25 25 25 26 27 28 29 30 31 31 30 30 31 31 31 31 31 31 31 31 31
30 30 30 31 32 33 33 33 32 32 32 32 31 30 30 30 30 30 30 30 29 30 29 29 29 29 29 29 30 30 30 30 30 30 30 30 30 29 29 29 29 29 28 28 27 27 27 27 27 27 27 28 27 26 26 25 25 25 25 25 24 24 24 24 24 24 25 26 27 28 29 30 31 31 30 30 30 30 31 31 31 31 31 30 31